Regional Weather Roundup
Issued by NWS

Home | Current Version | Previous Version | Graphics & Text | Print | Product List | Glossary On
Versions: 1 2 3 4 5 6 7 8 9 10 11 12 13 14 15 16 17 18 19 20 21 22 23 24 25 26 27 28 29 30 31 32 33 34 35 36 37 38 39 40 41 42 43 44 45 46 47 48 49 50
000
ASUS45 KPSR 230910
RWRAZ

ARIZONA HOURLY REGIONAL WEATHER ROUNDUP
NATIONAL WEATHER SERVICE PHOENIX AZ
200 AM MST THU FEB 23 2017

NOTE: FAIR INDICATES FEW OR NO CLOUDS BELOW 12,000 FEET WITH NO
SIGNIFICANT WEATHER AND/OR OBSTRUCTIONS TO VISIBILITY.

AZZ001>003-036-231000-
NORTHWEST ARIZONA

CITY           SKY/WX    TMP DP  RH WIND       PRES   REMARKS
BULLHEAD CITY  CLEAR     52  27  37 S12       29.88F
KINGMAN        CLOUDY    39  18  42 SW9       29.86S WCI  33
$$

AZZ004>008-015-016-018-231000-
NORTH CENTRAL ARIZONA

CITY           SKY/WX    TMP DP  RH WIND       PRES   REMARKS
GRAND CANYON   MOCLDY    29  22  75 SW12      29.76S WCI  19
WILLIAMS       PTCLDY    30  14  51 SW12G21   29.79S WCI  21
PRESCOTT       CLEAR     36  15  42 SW6       29.83S WCI  31
FLAGSTAFF      PTCLDY    32  21  64 SW20G29   29.77S WCI  20
PAYSON         MOCLDY    45  27  49 SW7G14    29.85F
PAGE           CLOUDY    41  21  44 W14G20    29.71R
$$

AZZ009>014-017-231000-
NORTHEAST ARIZONA

CITY           SKY/WX    TMP DP  RH WIND       PRES   REMARKS
WINSLOW        CLEAR     46  29  51 SW30G40   29.72F
SAINT JOHNS    CLEAR     50  30  46 SW16G26   29.72F
WINDOW ROCK    CLEAR     41  22  46 SW15G25   29.73F
SHOW LOW       CLEAR     41  32  70 S32G43    29.75F
$$

AZZ023-231000-
GREATER PHOENIX AREA

CITY           SKY/WX    TMP DP  RH WIND       PRES   REMARKS
PHOENIX        PTCLDY    59  32  36 W15       29.83R
BUCKEYE        CLEAR     50  36  57 W8        29.86R
LUKE AFB       CLEAR     57  28  32 W17       29.81S
DEER VALLEY    CLEAR     55  31  39 W13       29.81R
SCOTTSDALE     CLEAR     56  31  38 SW7       29.83R
MESA-GATEWAY   CLEAR     55  32  41 NW22      29.84R
$$

AZZ027-028-231000-
SOUTHWEST MARICOPA COUNTY AND PINAL COUNTY

CITY           SKY/WX    TMP DP  RH WIND       PRES   REMARKS
CASA GRANDE    NOT AVBL
GILA BEND      FAIR      55  34  44 W12       29.88S
$$

AZZ503-504-507>509-231000-
SOUTHEAST ARIZONA

CITY           SKY/WX    TMP DP  RH WIND       PRES   REMARKS
TUCSON         CLEAR     60  40  47 CALM      29.86S
DAVIS-MONTHAN  CLEAR     59  41  51 NW6       29.85S
NOGALES        CLEAR     54  42  64 SE3       29.90F
SIERRA VISTA   PTCLDY    58  36  43 SW21      29.90F
DOUGLAS        MOCLDY    54  36  50 VRB3      29.88F
SAFFORD        CLEAR     51  41  68 NE5       29.77F
$$

AZZ020-021-025-026-031-231000-
SOUTHWEST ARIZONA

CITY           SKY/WX    TMP DP  RH WIND       PRES   REMARKS
YUMA           CLEAR     54  35  48 NW3       29.93S
$$

CAZ031-033-041-043-047-048-061-231000-
SOUTHERN CALIFORNIA

CITY           SKY/WX    TMP DP  RH WIND       PRES   REMARKS
DOWNTOWN L.A.  CLEAR     55  28  35 VRB3      30.05F
L.A. AIRPORT   PTCLDY    53  32  44 NW9       30.06F
SAN DIEGO      MOCLDY    57  46  66 N3        30.08S
BURBANK        CLEAR     51  27  39 N17G23    30.04F
ONTARIO        PTCLDY    46  42  86 E5        30.03F
RIVERSIDE      CLEAR     44  41  89 E5        30.04S
PALM SPRINGS   CLEAR     57  34  41 SW5       29.90S
EL CENTRO NAS  CLEAR     55  36  48 W16       29.96S
BLYTHE         CLEAR     54  28  36 N6        29.92S
NEEDLES        CLEAR     54  21  27 W15       29.89S
$$

NVZ020-UTZ003-231000-
SOUTHERN NEVADA-UTAH

CITY           SKY/WX    TMP DP  RH WIND       PRES   REMARKS
LAS VEGAS      PTCLDY    47  31  53 SW3       29.85S
SALT LAKE CITY CLOUDY    31  28  89 S7        29.72F WCI  24
$$

NMZ009-TXZ055-231000-
NEW MEXICO-WEST TEXAS

CITY           SKY/WX    TMP DP  RH WIND       PRES   REMARKS
ALBUQUERQUE    CLOUDY    46  29  51 S14       29.74F
EL PASO        CLEAR     63  28  26 SW12      29.81F
$$


........................KEY........................
SKY/WX - SKY CONDITION/WEATHER
TMP    - TEMPERATURE IN FAHRENHEIT
DP     - DEW POINT IN FAHRENHEIT
RH     - RELATIVE HUMIDITY IN PERCENT
WIND   - DIRECTION AND SPEED IN MILES PER HOUR (MPH)
VRB    - VARIABLE WIND DIRECTION
PRES   - MEAN SEA LEVEL PRESSURE IN INCHES OF MERCURY
         F - FALLING PRESSURE   R - RISING PRESSURE
         S - STEADY PRESSURE
VSB    - VISIBILITY IN MILES
HX     - HEAT INDEX IN FAHRENHEIT
WCI    - WIND CHILL INDEX IN FAHRENHEIT
TC     - TEMPERATURE IN CELSIUS WHICH IS ALSO KNOWN AS
         TEMPERATURE IN CENTIGRADE
AFB    - AIR FORCE BASE
         LUKE AFB IS LUKE AIR FORCE BASE
         DAVIS-MONTHAN IS DAVIS-MONTHAN AIR FORCE BASE
NAS    - NAVAL AIR STATION
         EL CENTRO NAS IS EL CENTRO NAVAL AIR STATION
N/A    - NOT AVAILABLE




USA.gov is the U.S. government's official web portal to all federal, state and local government web resources and services.